EA8CHC Sevilla ES current weather conditions

sailwx.info

Wind from 274 at 3 knots gusting 6

Air temperature 22.8° C
Dewpoint 15.6° C

Last reported at 2018-Apr-22 14:02 UTC.
Time now 2018-Apr-22 14:43 UTC

Location: N 37°26' W 006°03'.
View on Google Maps.

See reports from other nearby stations

  
Tides and Currents Weather Stations Pressure Air Temp Water Temp Dewpoint Dewpoint Depression Visibility Wind Speed Wind Dir Waves Ship Positions
date/time (UTC)wind fromknots sea level pressurealtimeterstation pressurevisibilityair tempwater tempwave heightnotes
2018-Apr-22 14:27 313 3 gusting 9 23.3
2018-Apr-22 14:22 265 3 gusting 9 23.3
2018-Apr-22 14:17 242 2 gusting 9 22.8
2018-Apr-22 14:12 256 2 gusting 7 22.8
2018-Apr-22 14:07 264 3 gusting 7 22.8
2018-Apr-22 14:02 274 3 gusting 6 22.8
2018-Apr-22 13:57 292 3 gusting 6 22.2
2018-Apr-22 13:52 259 4 gusting 6 22.8
2018-Apr-22 13:47 253 2 gusting 6 22.8
2018-Apr-22 13:42 269 0 gusting 6 22.8
2018-Apr-22 13:37 262 1 gusting 6 22.8
2018-Apr-22 13:32 215 3 gusting 9 22.8
2018-Apr-22 13:27 240 3 gusting 9 22.8
2018-Apr-22 13:22 244 2 gusting 9 22.8
2018-Apr-22 13:17 229 2 gusting 6 22.2
2018-Apr-22 13:12 192 3 gusting 6 22.2
2018-Apr-22 13:07 211 3 gusting 6 22.2
2018-Apr-22 13:02 200 3 gusting 9 22.2
2018-Apr-22 12:57 213 3 gusting 9 22.8
2018-Apr-22 12:52 207 3 gusting 9 22.8
2018-Apr-22 12:47 250 2 gusting 8 22.8
2018-Apr-22 12:42 282 1 gusting 5 22.8
2018-Apr-22 12:37 201 0 gusting 7 22.8
2018-Apr-22 12:32 257 0 gusting 7 22.8
2018-Apr-22 12:27 305 2 gusting 7 22.2
2018-Apr-22 12:22 270 2 gusting 7 22.2
2018-Apr-22 12:17 261 2 gusting 7 22.2
2018-Apr-22 12:12 232 3 gusting 7 21.7
2018-Apr-22 12:07 211 2 gusting 6 21.7
2018-Apr-22 12:02 238 2 gusting 6 22.2
2018-Apr-22 11:57 273 2 gusting 6 22.2
2018-Apr-22 11:52 292 1 gusting 6 22.2
2018-Apr-22 11:47 309 0 gusting 4 22.2
2018-Apr-22 11:42 350 1 gusting 4 21.7
2018-Apr-22 11:37 234 0 gusting 4 21.7
2018-Apr-22 11:32 248 0 gusting 5 21.7
2018-Apr-22 11:27 355 1 gusting 5 21.7
2018-Apr-22 11:22 213 1 gusting 5 21.7
2018-Apr-22 11:17 203 1 gusting 5 21.1
2018-Apr-22 11:12 257 1 gusting 5 21.1
2018-Apr-22 11:07 284 0 gusting 5 21.1
2018-Apr-22 11:02 327 1 gusting 5 21.1
2018-Apr-22 10:57 351 1 gusting 5 21.1
2018-Apr-22 10:52 308 1 gusting 5 21.1
2018-Apr-22 10:47 256 2 gusting 5 21.1
2018-Apr-22 10:42 252 2 gusting 5 21.1
2018-Apr-22 10:37 281 0 gusting 4 21.7
2018-Apr-22 10:32 202 21.7
2018-Apr-22 10:27 054 0 gusting 6 21.1
2018-Apr-22 10:22 054 1 gusting 6 21.1
2018-Apr-22 10:17 355 1 gusting 4 21.1
2018-Apr-22 10:12 313 1 gusting 5 20.6
2018-Apr-22 10:07 312 1 gusting 6 20.6
2018-Apr-22 10:02 355 1 gusting 6 20.6
2018-Apr-22 09:57 336 1 gusting 6 20.6
2018-Apr-22 09:52 314 1 gusting 6 20.6
2018-Apr-22 09:47 256 1 gusting 6 20.0
2018-Apr-22 09:42 334 2 gusting 6 20.0
2018-Apr-22 09:37 254 1 gusting 5 20.0
2018-Apr-22 09:32 313 1 gusting 5 20.0
2018-Apr-22 09:27 314 2 gusting 5 19.4
2018-Apr-22 09:22 278 2 gusting 5 19.4
2018-Apr-22 09:17 290 1 gusting 5 19.4
2018-Apr-22 09:12 286 2 gusting 6 18.9
2018-Apr-22 09:07 282 3 gusting 6 18.9
2018-Apr-22 09:02 284 2 gusting 4 18.9
2018-Apr-22 08:57 279 1 gusting 4 18.3
2018-Apr-22 08:52 286 1 gusting 4 18.3
2018-Apr-22 08:47 275 1 gusting 4 18.3
2018-Apr-22 08:42 289 0 gusting 3 17.8
2018-Apr-22 08:37 309 0 gusting 3 17.8
2018-Apr-22 08:32 275 1 gusting 3 17.2
2018-Apr-22 08:27 285 1 gusting 3 17.2
2018-Apr-22 08:22 303 0 gusting 3 17.2
2018-Apr-22 08:17 291 16.7
2018-Apr-22 08:12 259 16.7
2018-Apr-22 08:07 346 0 gusting 3 16.7
2018-Apr-22 08:02 347 1 gusting 3 16.7
2018-Apr-22 07:57 16.7
2018-Apr-22 07:52 036 16.7
2018-Apr-22 07:47 084 16.7
2018-Apr-22 07:42 084 16.1
2018-Apr-22 07:37 084 0 gusting 1 16.1
2018-Apr-22 07:32 343 16.1
2018-Apr-22 07:27 335 16.1
2018-Apr-22 07:22 318 16.1
2018-Apr-22 07:17 228 16.1
2018-Apr-22 07:12 228 16.1
2018-Apr-22 07:07 228 15.6
2018-Apr-22 07:02 169 15.6
2018-Apr-22 06:57 115 15.6
2018-Apr-22 06:52 098 16.1
2018-Apr-22 06:47 202 15.6
2018-Apr-22 06:42 216 15.6
2018-Apr-22 06:37 217 15.6
2018-Apr-22 06:32 217 0 gusting 2 15.6
2018-Apr-22 06:27 217 0 gusting 2 15.6
2018-Apr-22 06:22 251 1 gusting 2 15.6
2018-Apr-22 06:17 251 1 gusting 3 15.6
2018-Apr-22 06:12 250 0 gusting 3 15.6
2018-Apr-22 06:07 250 0 gusting 3 15.0
2018-Apr-22 06:02 250 1 gusting 2 15.0
2018-Apr-22 05:57 240 0 gusting 2 15.0
2018-Apr-22 05:52 262 0 gusting 2 15.0
2018-Apr-22 05:47 262 0 gusting 2 15.0
2018-Apr-22 05:42 259 0 gusting 2 15.0
2018-Apr-22 05:37 277 0 gusting 2 15.0
2018-Apr-22 05:32 277 15.0
2018-Apr-22 05:27 277 15.6
2018-Apr-22 05:22 277 15.6
2018-Apr-22 05:17 277 15.6
2018-Apr-22 05:12 277 15.6
2018-Apr-22 05:07 277 15.6
2018-Apr-22 05:02 277 15.6
2018-Apr-22 04:57 277 15.6
2018-Apr-22 04:52 277 15.6
2018-Apr-22 04:47 277 0 gusting 4 15.6
2018-Apr-22 04:42 277 1 gusting 4 15.6
2018-Apr-22 04:37 269 1 gusting 3 15.6
2018-Apr-22 04:32 275 1 gusting 3 15.6
2018-Apr-22 04:27 265 1 gusting 4 15.6
2018-Apr-22 04:22 303 1 gusting 5 15.6
2018-Apr-22 04:17 304 2 gusting 5 15.6
2018-Apr-22 04:12 275 3 gusting 5 15.6
2018-Apr-22 04:07 233 3 gusting 5 15.6
2018-Apr-22 04:02 262 2 gusting 5 15.6
2018-Apr-22 03:57 277 0 gusting 5 16.1
2018-Apr-22 03:52 295 16.1
2018-Apr-22 03:47 295 1 gusting 6 16.1
2018-Apr-22 03:42 288 3 gusting 6 16.1
2018-Apr-22 03:37 266 3 gusting 6 16.1
2018-Apr-22 03:32 258 2 gusting 6 16.1
2018-Apr-22 03:27 329 1 gusting 4 16.1
2018-Apr-22 03:22 272 2 gusting 5 16.1
2018-Apr-22 03:17 263 3 gusting 5 16.1
2018-Apr-22 03:12 264 3 gusting 5 16.1
2018-Apr-22 03:07 263 2 gusting 6 16.1
2018-Apr-22 03:02 292 2 gusting 6 16.1
2018-Apr-22 02:57 292 3 gusting 6 16.7
2018-Apr-22 02:52 281 2 gusting 4 16.7
2018-Apr-22 02:47 318 2 gusting 4 16.7
2018-Apr-22 02:42 344 2 gusting 5 16.7
2018-Apr-22 02:37 309 2 gusting 5 16.7
2018-Apr-22 02:32 246 2 gusting 4 16.7
2018-Apr-22 02:27 269 2 gusting 4 16.7
2018-Apr-22 02:22 269 1 gusting 4 16.7
2018-Apr-22 02:17 275 16.7
2018-Apr-22 02:12 348 0 gusting 3 16.7
2018-Apr-22 02:07 349 1 gusting 3 16.7
2018-Apr-22 02:02 355 0 gusting 4 16.7
2018-Apr-22 01:57 281 1 gusting 4 16.7
2018-Apr-22 01:52 281 1 gusting 4 16.7
2018-Apr-22 01:47 292 0 gusting 3 16.7
2018-Apr-22 01:42 329 0 gusting 2 17.2
2018-Apr-22 01:37 184 17.2
2018-Apr-22 01:32 184 17.2
2018-Apr-22 01:27 184 0 gusting 6 17.2
2018-Apr-22 01:22 183 1 gusting 7 17.2
2018-Apr-22 01:17 037 3 gusting 7 17.2
2018-Apr-22 01:12 056 5 gusting 7 16.7
2018-Apr-22 01:07 040 3 gusting 6 16.7
2018-Apr-22 01:02 043 1 gusting 2 17.2
2018-Apr-22 00:57 009 0 gusting 2 17.2
2018-Apr-22 00:52 240 0 gusting 3 17.2
2018-Apr-22 00:47 236 0 gusting 5 17.2
2018-Apr-22 00:42 330 1 gusting 6 17.2
2018-Apr-22 00:37 011 3 gusting 6 17.2
2018-Apr-22 00:32 350 3 gusting 6 17.2
2018-Apr-22 00:27 030 2 gusting 6 17.8
2018-Apr-22 00:22 058 1 gusting 4 17.8
2018-Apr-22 00:17 074 1 gusting 4 17.8
2018-Apr-22 00:12 064 1 gusting 4 17.8
2018-Apr-22 00:07 097 0 gusting 4 18.3
2018-Apr-22 00:02 117 0 gusting 5 18.3
2018-Apr-21 23:57 119 1 gusting 5 18.3
2018-Apr-21 23:52 122 1 gusting 5 18.3
2018-Apr-21 23:47 123 0 gusting 4 18.3
2018-Apr-21 23:42 085 0 gusting 3 18.3
2018-Apr-21 23:37 065 0 gusting 3 18.3
2018-Apr-21 23:32 065 18.3
2018-Apr-21 23:27 123 0 gusting 5 18.3
2018-Apr-21 23:22 123 1 gusting 5 18.3
2018-Apr-21 23:17 142 1 gusting 5 18.3
2018-Apr-21 23:12 131 0 gusting 5 18.3
2018-Apr-21 23:07 077 1 gusting 5 18.3
2018-Apr-21 23:02 030 1 gusting 5 18.3
2018-Apr-21 22:57 029 1 gusting 7 18.3
2018-Apr-21 22:52 013 2 gusting 7 18.3
2018-Apr-21 22:47 18.3
2018-Apr-21 22:42 037 0 gusting 5 18.3
2018-Apr-21 22:37 335 1 gusting 5 18.3
2018-Apr-21 22:32 324 2 gusting 5 18.3
2018-Apr-21 22:27 304 2 gusting 5 18.3
2018-Apr-21 22:22 315 1 gusting 6 18.3
2018-Apr-21 22:17 320 2 gusting 6 18.3
2018-Apr-21 22:12 304 3 gusting 6 18.3
2018-Apr-21 22:07 284 4 gusting 6 17.8
2018-Apr-21 22:02 291 3 gusting 7 17.8
2018-Apr-21 21:57 315 4 gusting 7 17.8
2018-Apr-21 21:52 334 4 gusting 7 17.8
2018-Apr-21 21:47 284 3 gusting 6 17.8
2018-Apr-21 21:42 297 3 gusting 6 17.8
2018-Apr-21 21:37 284 3 gusting 6 17.8
2018-Apr-21 21:32 270 3 gusting 6 17.8
2018-Apr-21 21:27 298 4 gusting 7 17.8
2018-Apr-21 21:22 252 4 gusting 7 17.8
2018-Apr-21 21:17 268 4 gusting 7 17.8
2018-Apr-21 21:12 300 4 gusting 7 17.8
2018-Apr-21 21:07 299 5 gusting 8 17.8
2018-Apr-21 21:02 275 5 gusting 7 17.8
2018-Apr-21 20:57 269 4 gusting 7 17.8
2018-Apr-21 20:52 254 3 gusting 6 17.8
2018-Apr-21 20:47 246 3 gusting 6 17.8
2018-Apr-21 20:42 239 3 gusting 7 17.8
2018-Apr-21 20:37 233 4 gusting 9 17.8
2018-Apr-21 20:32 252 6 gusting 9 17.8
2018-Apr-21 20:27 267 5 gusting 9 18.3
2018-Apr-21 20:22 269 4 gusting 8 18.3
2018-Apr-21 20:17 264 5 gusting 9 18.3
2018-Apr-21 20:12 296 6 gusting 9 18.3
2018-Apr-21 20:07 277 6 gusting 9 18.9
2018-Apr-21 20:02 275 6 gusting 8 18.9
2018-Apr-21 19:57 260 5 gusting 10 19.4
2018-Apr-21 19:52 254 4 gusting 10 18.9
2018-Apr-21 19:47 223 4 gusting 8 18.9
2018-Apr-21 19:42 227 3 gusting 6 18.9
2018-Apr-21 19:37 269 3 gusting 6 18.9
2018-Apr-21 19:32 270 3 gusting 6 19.4
2018-Apr-21 19:27 288 3 gusting 6 19.4
2018-Apr-21 19:22 305 2 gusting 6 20.0
2018-Apr-21 19:17 349 2 gusting 6 20.0
2018-Apr-21 19:12 331 2 gusting 6 20.0
2018-Apr-21 19:07 315 2 gusting 5 20.0
2018-Apr-21 19:02 335 0 gusting 2 20.6
2018-Apr-21 18:57 260 20.6
2018-Apr-21 18:52 246 20.6
2018-Apr-21 18:47 239 0 gusting 4 21.1
2018-Apr-21 18:42 239 1 gusting 4 21.1
2018-Apr-21 18:37 239 0 gusting 4 21.1
2018-Apr-21 18:32 257 0 gusting 3 21.7
2018-Apr-21 18:27 21.7
2018-Apr-21 18:22 016 0 gusting 4 21.7
2018-Apr-21 18:17 031 0 gusting 4 21.7
2018-Apr-21 18:12 026 1 gusting 4 22.2
2018-Apr-21 18:07 355 1 gusting 4 22.2
2018-Apr-21 18:02 069 0 gusting 6 22.2
2018-Apr-21 17:57 069 2 gusting 6 22.2
2018-Apr-21 17:52 069 3 gusting 6 22.2
2018-Apr-21 17:47 067 2 gusting 6 22.2
2018-Apr-21 17:42 049 3 gusting 6 22.8
2018-Apr-21 17:37 043 2 gusting 6 22.8
2018-Apr-21 17:32 050 1 gusting 5 22.8
2018-Apr-21 17:27 086 1 gusting 5 22.8
2018-Apr-21 17:22 122 0 gusting 2 22.8
2018-Apr-21 17:17 067 22.8
2018-Apr-21 17:12 067 0 gusting 5 22.8
2018-Apr-21 17:07 067 2 gusting 6 22.8
2018-Apr-21 17:02 070 3 gusting 7 22.8
2018-Apr-21 16:57 061 3 gusting 8 22.8
2018-Apr-21 16:52 044 4 gusting 8 22.8
2018-Apr-21 16:47 100 4 gusting 6 22.8
2018-Apr-21 16:42 090 2 gusting 4 22.8
2018-Apr-21 16:37 134 0 gusting 4 22.8
2018-Apr-21 16:32 138 0 gusting 4 22.8
2018-Apr-21 16:27 102 1 gusting 4 22.8
2018-Apr-21 16:22 113 1 gusting 5 22.8
2018-Apr-21 16:17 093 2 gusting 6 22.8
2018-Apr-21 16:12 111 3 gusting 6 22.8
2018-Apr-21 16:07 101 4 gusting 6 22.8
2018-Apr-21 16:02 058 4 gusting 7 22.8
2018-Apr-21 15:57 041 2 gusting 7 22.8
2018-Apr-21 15:52 115 1 gusting 7 22.8
2018-Apr-21 15:47 104 1 gusting 5 22.8
2018-Apr-21 15:42 074 1 gusting 5 22.8
2018-Apr-21 15:37 052 1 gusting 4 22.8
2018-Apr-21 15:32 020 0 gusting 3 22.8
2018-Apr-21 15:27 031 0 gusting 2 22.8
2018-Apr-21 15:22 031 22.8
2018-Apr-21 15:17 031 0 gusting 5 22.2
2018-Apr-21 15:12 031 2 gusting 5 22.2
2018-Apr-21 15:07 349 2 gusting 4 22.2
2018-Apr-21 15:02 350 2 gusting 9 22.2
2018-Apr-21 14:57 038 3 gusting 9 22.2
2018-Apr-21 14:52 038 3 gusting 9 21.7
2018-Apr-21 14:47 326 2 gusting 6 21.7
2018-Apr-21 14:42 355 1 gusting 6 21.7
2018-Apr-21 14:37 020 1 gusting 5 21.7
2018-Apr-21 14:32 071 1 gusting 7 21.7
2018-Apr-21 14:27 051 1 gusting 7 21.7
2018-Apr-21 14:22 046 1 gusting 7 21.1
2018-Apr-21 14:17 009 1 gusting 6 21.1
2018-Apr-21 14:12 055 1 gusting 7 21.1
2018-Apr-21 14:07 21.1
2018-Apr-21 14:02 301 4 gusting 8 20.6
2018-Apr-21 13:57 302 3 gusting 8 20.6
2018-Apr-21 13:52 331 2 gusting 6 20.6
2018-Apr-21 13:47 348 1 gusting 5 20.6
2018-Apr-21 13:42 20.0
2018-Apr-21 13:37 032 2 gusting 6 20.0
2018-Apr-21 13:32 296 2 gusting 6 19.4
2018-Apr-21 13:27 296 2 gusting 6 19.4
2018-Apr-21 13:22 306 3 gusting 6 19.4
2018-Apr-21 13:17 281 2 gusting 6 18.9
2018-Apr-21 13:12 355 2 gusting 9 18.9
2018-Apr-21 13:07 344 4 gusting 9 18.9
2018-Apr-21 13:02 044 3 gusting 9 18.9
2018-Apr-21 12:57 057 0 gusting 6 19.4
2018-Apr-21 12:52 251 0 gusting 6 19.4
2018-Apr-21 12:47 287 2 gusting 8 19.4
2018-Apr-21 12:42 251 3 gusting 8 19.4
2018-Apr-21 12:37 230 4 gusting 9 18.9
2018-Apr-21 12:32 307 4 gusting 10 19.4
2018-Apr-21 12:27 298 4 gusting 10 19.4
2018-Apr-21 12:22 277 5 gusting 11 19.4
2018-Apr-21 12:17 257 6 gusting 14 19.4
2018-Apr-21 12:12 261 7 gusting 14 19.4
2018-Apr-21 12:07 275 7 gusting 14 18.9
2018-Apr-21 12:02 257 7 gusting 14 18.9
2018-Apr-21 11:57 250 8 gusting 14 18.9
2018-Apr-21 11:52 254 7 gusting 13 18.9
2018-Apr-21 11:47 269 6 gusting 13 18.9
2018-Apr-21 11:42 285 7 gusting 13 18.9
2018-Apr-21 11:37 265 7 gusting 13 18.9
2018-Apr-21 11:32 274 6 gusting 13 18.9
2018-Apr-21 11:27 275 6 gusting 13 18.3
2018-Apr-21 11:22 323 8 gusting 13 18.3
2018-Apr-21 11:17 275 7 gusting 16 18.3
2018-Apr-21 11:12 261 8 gusting 16 18.3
2018-Apr-21 11:07 255 8 gusting 16 18.3
2018-Apr-21 11:02 208 7 gusting 13 18.3
2018-Apr-21 10:57 228 7 gusting 15 18.3
2018-Apr-21 10:52 279 7 gusting 15 18.3
2018-Apr-21 10:47 254 6 gusting 14 18.9
2018-Apr-21 10:42 254 7 gusting 15 18.9
2018-Apr-21 10:37 265 7 gusting 15 18.9
2018-Apr-21 10:32 226 7 gusting 15 18.9
2018-Apr-21 10:27 239 6 gusting 13 19.4
2018-Apr-21 10:22 272 5 gusting 13 20.0
2018-Apr-21 10:17 255 5 gusting 11 20.6
2018-Apr-21 10:12 279 4 gusting 7 20.0
2018-Apr-21 10:07 255 2 gusting 6 20.0
2018-Apr-21 10:02 280 1 gusting 5 20.0
2018-Apr-21 09:57 258 0 gusting 5 20.0
2018-Apr-21 09:52 227 0 gusting 5 20.0
2018-Apr-21 09:47 069 1 gusting 5 20.0
2018-Apr-21 09:42 057 2 gusting 6 19.4
2018-Apr-21 09:37 069 2 gusting 7 19.4
2018-Apr-21 09:32 113 3 gusting 9 19.4
2018-Apr-21 09:27 112 5 gusting 12 19.4
2018-Apr-21 09:22 093 6 gusting 12 19.4
2018-Apr-21 09:17 105 7 gusting 12 19.4
2018-Apr-21 09:12 092 7 gusting 12 19.4
2018-Apr-21 09:07 110 7 gusting 12 19.4
2018-Apr-21 09:02 091 7 gusting 12 19.4
2018-Apr-21 08:57 074 6 gusting 15 18.9
2018-Apr-21 08:52 090 7 gusting 15 18.9
2018-Apr-21 08:47 083 9 gusting 16 18.9
2018-Apr-21 08:42 100 8 gusting 16 18.9
2018-Apr-21 08:37 094 6 gusting 16 18.9
2018-Apr-21 08:32 101 6 gusting 11 18.9
2018-Apr-21 08:27 094 6 gusting 11 18.9
2018-Apr-21 08:22 056 6 gusting 13 18.9
2018-Apr-21 08:17 072 7 gusting 13 18.9
2018-Apr-21 08:12 096 8 gusting 15 18.9
2018-Apr-21 08:07 081 8 gusting 15 18.9
2018-Apr-21 08:02 069 7 gusting 13 18.9
2018-Apr-21 07:57 086 7 gusting 13 18.3
2018-Apr-21 07:52 078 6 gusting 13 18.3
2018-Apr-21 07:47 078 6 gusting 12 18.3
2018-Apr-21 07:42 068 6 gusting 12 18.3
2018-Apr-21 07:37 093 6 gusting 13 18.3
2018-Apr-21 07:32 064 6 gusting 16 18.3
2018-Apr-21 07:27 061 8 gusting 18 18.3
2018-Apr-21 07:22 061 10 gusting 22 18.3
2018-Apr-21 07:17 070 12 gusting 22 18.3
2018-Apr-21 07:12 088 11 gusting 22 18.3
2018-Apr-21 07:07 064 10 gusting 19 17.8
2018-Apr-21 07:02 089 9 gusting 19 17.8
2018-Apr-21 06:57 080 8 gusting 14 17.8
2018-Apr-21 06:52 068 7 gusting 14 17.2
2018-Apr-21 06:47 082 7 gusting 16 17.2
2018-Apr-21 06:42 080 7 gusting 16 17.2
2018-Apr-21 06:37 068 8 gusting 14 17.2
2018-Apr-21 06:32 069 7 gusting 14 17.2
2018-Apr-21 06:27 069 6 gusting 13 16.7
2018-Apr-21 06:22 105 5 gusting 13 16.7
2018-Apr-21 06:17 078 5 gusting 10 16.7
2018-Apr-21 06:12 082 4 gusting 10 16.7
2018-Apr-21 06:07 076 5 gusting 12 16.1
2018-Apr-21 06:02 066 5 gusting 12 16.1
2018-Apr-21 05:57 059 6 gusting 13 15.6
2018-Apr-21 05:52 025 6 gusting 13 15.6
2018-Apr-21 05:47 017 7 gusting 13 15.6
2018-Apr-21 05:42 039 4 gusting 8 15.6
2018-Apr-21 05:37 064 3 gusting 8 15.6
2018-Apr-21 05:32 048 4 gusting 6 15.6
2018-Apr-21 05:27 046 4 gusting 6 15.6
2018-Apr-21 05:22 061 3 gusting 6 15.0
2018-Apr-21 05:17 005 3 gusting 6 15.0
2018-Apr-21 05:12 013 3 gusting 6 15.6
2018-Apr-21 05:07 029 3 gusting 6 15.6
2018-Apr-21 05:02 349 3 gusting 6 15.6
2018-Apr-21 04:57 282 4 gusting 6 15.6
2018-Apr-21 04:52 297 3 gusting 5 15.6
2018-Apr-21 04:47 282 2 gusting 5 15.6
2018-Apr-21 04:42 263 3 gusting 5 15.6
2018-Apr-21 04:37 260 3 gusting 6 15.6
2018-Apr-21 04:32 269 2 gusting 6 15.6
2018-Apr-21 04:27 270 3 gusting 6 15.6
2018-Apr-21 04:22 274 3 gusting 6 15.6
2018-Apr-21 04:17 267 2 gusting 6 15.6
2018-Apr-21 04:12 267 2 gusting 6 15.6
2018-Apr-21 04:07 263 3 gusting 6 15.6
2018-Apr-21 04:02 276 2 gusting 5 15.6
2018-Apr-21 03:57 333 2 gusting 6 15.6
2018-Apr-21 03:52 292 2 gusting 6 16.1
2018-Apr-21 03:47 294 2 gusting 6 16.1
2018-Apr-21 03:42 297 2 gusting 6 16.1
2018-Apr-21 03:37 239 2 gusting 7 16.1
2018-Apr-21 03:32 250 3 gusting 7 16.7
2018-Apr-21 03:27 243 3 gusting 7 16.7
2018-Apr-21 03:22 262 3 gusting 7 16.1
2018-Apr-21 03:17 225 2 gusting 7 16.7
2018-Apr-21 03:12 242 3 gusting 7 16.7
2018-Apr-21 03:07 265 3 gusting 6 16.1
2018-Apr-21 03:02 250 3 gusting 6 16.1
2018-Apr-21 02:57 218 3 gusting 7 16.1
2018-Apr-21 02:52 279 3 gusting 7 16.1
2018-Apr-21 02:47 247 4 gusting 7 16.1
2018-Apr-21 02:42 220 2 gusting 5 16.1
2018-Apr-21 02:37 246 2 gusting 5 16.1
2018-Apr-21 02:32 272 2 gusting 6 16.1
2018-Apr-21 02:27 277 2 gusting 6 16.7
2018-Apr-21 02:22 320 3 gusting 6 16.7
2018-Apr-21 02:17 307 3 gusting 7 16.1
2018-Apr-21 02:12 280 2 gusting 8 16.7
2018-Apr-21 02:07 302 4 gusting 8 16.7
2018-Apr-21 02:02 231 5 gusting 8 16.1
2018-Apr-21 01:57 233 3 gusting 6 16.1
2018-Apr-21 01:52 279 3 gusting 9 16.1
2018-Apr-21 01:47 355 4 gusting 9 16.1
2018-Apr-21 01:42 047 4 gusting 9 16.1
2018-Apr-21 01:37 051 2 gusting 6 16.1
2018-Apr-21 01:32 013 1 gusting 5 16.1
2018-Apr-21 01:27 343 2 gusting 5 16.1
2018-Apr-21 01:22 035 2 gusting 5 16.1
2018-Apr-21 01:17 355 1 gusting 6 16.7
2018-Apr-21 01:12 268 3 gusting 8 16.7
2018-Apr-21 01:07 273 5 gusting 8 16.7
2018-Apr-21 01:02 246 6 gusting 8 16.7
2018-Apr-21 00:57 263 4 gusting 8 16.7
2018-Apr-21 00:52 269 2 gusting 6 17.2
2018-Apr-21 00:47 270 0 gusting 5 17.2
2018-Apr-21 00:42 234 0 gusting 6 17.2
2018-Apr-21 00:37 187 2 gusting 6 17.2
2018-Apr-21 00:32 227 2 gusting 6 16.7
2018-Apr-21 00:27 246 0 gusting 4 16.7
2018-Apr-21 00:22 053 0 gusting 5 16.7
2018-Apr-21 00:17 053 0 gusting 11 16.7
2018-Apr-21 00:12 064 2 gusting 11 16.7
2018-Apr-21 00:07 017 5 gusting 11 16.7
2018-Apr-21 00:02 071 6 gusting 11 16.7
2018-Apr-20 23:57 053 5 gusting 10 16.7
2018-Apr-20 23:52 026 2 gusting 6 16.1
2018-Apr-20 23:47 044 2 gusting 6 16.1
2018-Apr-20 23:42 022 3 gusting 9 16.1
2018-Apr-20 23:37 036 3 gusting 9 16.1
2018-Apr-20 23:32 051 4 gusting 9 16.1
2018-Apr-20 23:27 056 4 gusting 9 16.1
2018-Apr-20 23:22 046 4 gusting 9 16.1
2018-Apr-20 23:17 036 3 gusting 8 16.1
2018-Apr-20 23:12 066 3 gusting 8 16.1
2018-Apr-20 23:07 059 3 gusting 6 16.1
2018-Apr-20 23:02 005 3 gusting 6 16.1
2018-Apr-20 22:57 005 3 gusting 5 16.1
2018-Apr-20 22:52 005 2 gusting 5 16.1
2018-Apr-20 22:47 024 1 gusting 3 16.1
2018-Apr-20 22:42 061 1 gusting 3 16.7
2018-Apr-20 22:37 061 2 gusting 3 16.7
2018-Apr-20 22:32 061 1 gusting 3 16.7
2018-Apr-20 22:27 061 1 gusting 3 16.7
2018-Apr-20 22:22 061 1 gusting 4 17.2
2018-Apr-20 22:17 061 1 gusting 4 17.2
2018-Apr-20 22:12 061 1 gusting 4 17.8
2018-Apr-20 22:07 177 17.8
2018-Apr-20 22:02 184 17.8
2018-Apr-20 21:57 184 18.3
2018-Apr-20 21:52 184 18.3
2018-Apr-20 21:47 184 18.3
2018-Apr-20 21:42 184 18.3
2018-Apr-20 21:37 184 0 gusting 2 18.3
2018-Apr-20 21:32 184 0 gusting 2 18.3
2018-Apr-20 21:27 184 0 gusting 2 18.3
2018-Apr-20 21:22 195 0 gusting 2 18.3
2018-Apr-20 21:17 201 18.9
2018-Apr-20 21:12 201 18.9
2018-Apr-20 21:07 201 18.9
2018-Apr-20 21:02 201 18.9
2018-Apr-20 20:57 201 18.9
2018-Apr-20 20:52 201 0 gusting 2 18.9
2018-Apr-20 20:47 202 18.9
2018-Apr-20 20:42 202 18.9
2018-Apr-20 20:37 202 18.9
2018-Apr-20 20:32 202 0 gusting 4 18.9
2018-Apr-20 20:27 202 0 gusting 4 18.9
2018-Apr-20 20:22 203 0 gusting 5 18.9
2018-Apr-20 20:17 189 1 gusting 5 18.9
2018-Apr-20 20:12 188 2 gusting 6 18.9
2018-Apr-20 20:07 183 2 gusting 6 19.4
2018-Apr-20 20:02 198 2 gusting 6 19.4
2018-Apr-20 19:57 193 3 gusting 6 19.4
2018-Apr-20 19:52 200 2 gusting 6 19.4
2018-Apr-20 19:47 202 2 gusting 5 19.4
2018-Apr-20 19:42 201 1 gusting 3 19.4
2018-Apr-20 19:37 242 1 gusting 3 19.4
2018-Apr-20 19:32 260 0 gusting 3 20.0
2018-Apr-20 19:27 235 0 gusting 5 20.0
2018-Apr-20 19:22 259 0 gusting 5 20.0
2018-Apr-20 19:17 256 1 gusting 5 20.0
2018-Apr-20 19:12 242 1 gusting 4 20.0
2018-Apr-20 19:07 257 1 gusting 6 20.0
2018-Apr-20 19:02 243 2 gusting 8 20.6
2018-Apr-20 18:57 264 3 gusting 8 20.6
2018-Apr-20 18:52 223 3 gusting 10 20.6
2018-Apr-20 18:47 215 3 gusting 13 20.6
2018-Apr-20 18:42 258 6 gusting 13 20.6
2018-Apr-20 18:37 217 7 gusting 13 20.6
2018-Apr-20 18:32 198 6 gusting 13 20.6
2018-Apr-20 18:27 218 6 gusting 12 21.1
2018-Apr-20 18:22 200 6 gusting 13 21.1
2018-Apr-20 18:17 225 6 gusting 13 21.1
2018-Apr-20 18:12 206 7 gusting 13 21.1
2018-Apr-20 18:07 211 7 gusting 13 21.1
2018-Apr-20 18:02 195 6 gusting 12 21.7
2018-Apr-20 17:57 249 6 gusting 12 21.7
2018-Apr-20 17:52 239 6 gusting 13 21.7
2018-Apr-20 17:47 207 6 gusting 14 22.2
2018-Apr-20 17:42 234 8 gusting 14 22.2
2018-Apr-20 17:37 207 7 gusting 14 22.2
2018-Apr-20 17:32 215 6 gusting 13 22.8
2018-Apr-20 17:27 243 6 gusting 13 22.8
2018-Apr-20 17:22 229 6 gusting 13 22.8
2018-Apr-20 17:17 255 5 gusting 13 22.8
2018-Apr-20 17:12 290 5 gusting 13 22.8
2018-Apr-20 17:07 217 5 gusting 8 22.8
2018-Apr-20 17:02 227 4 gusting 10 22.8
2018-Apr-20 16:57 189 5 gusting 11 22.8
2018-Apr-20 16:52 236 5 gusting 11 22.8
2018-Apr-20 16:47 240 4 gusting 11 23.3
2018-Apr-20 16:42 244 4 gusting 11 23.3
2018-Apr-20 16:37 234 4 gusting 13 23.3
2018-Apr-20 16:32 245 5 gusting 13 23.3
2018-Apr-20 16:27 223 5 gusting 13 23.3
2018-Apr-20 16:22 248 5 gusting 11 23.3
2018-Apr-20 16:17 237 5 gusting 10 23.3
2018-Apr-20 16:12 243 4 gusting 10 23.3
2018-Apr-20 16:07 221 4 gusting 9 23.9
2018-Apr-20 16:02 215 3 gusting 9 23.9
2018-Apr-20 15:57 302 4 gusting 9 23.9
2018-Apr-20 15:52 234 4 gusting 7 23.9
2018-Apr-20 15:47 273 3 gusting 8 24.4
2018-Apr-20 15:42 248 3 gusting 9 24.4
2018-Apr-20 15:37 234 5 gusting 9 24.4
2018-Apr-20 15:32 264 5 gusting 9 23.9
2018-Apr-20 15:27 217 4 gusting 9 23.9
2018-Apr-20 15:22 258 4 gusting 9 23.9
2018-Apr-20 15:17 239 4 gusting 9 23.9
2018-Apr-20 15:12 215 4 gusting 9 23.9
2018-Apr-20 15:07 209 4 gusting 9 23.9
2018-Apr-20 15:02 280 5 gusting 12 23.9
2018-Apr-20 14:57 213 6 gusting 12 23.9
2018-Apr-20 14:52 252 5 gusting 12 23.9
2018-Apr-20 14:47 235 5 gusting 12 23.9
2018-Apr-20 14:42 200 6 gusting 12 23.9
2018-Apr-20 14:37 187 6 gusting 11 23.9
2018-Apr-20 14:32 210 5 gusting 12 23.9
2018-Apr-20 14:27 175 6 gusting 12 23.9
2018-Apr-20 14:22 182 6 gusting 12 23.9
2018-Apr-20 14:17 204 6 gusting 13 23.9
2018-Apr-20 14:12 234 6 gusting 14 23.9
2018-Apr-20 14:07 192 6 gusting 14 23.9
2018-Apr-20 14:02 180 6 gusting 14 23.9